This is the latest recevied weather packets stored in our database for station/object KG5MMT-15. If no packets are shown the sender has not sent any weather packets the latest 10 day(s).
| Time | Temp. | Humidity | Pressure | Rain* | Wind** | Luminosity | Snow |
|---|---|---|---|---|---|---|---|
| 1777832841 | 18.89° C | 22% | 0 hPa | 0 mm | - | - | - |
| 1777832541 | 18.33° C | 21% | 0 hPa | 0 mm | - | - | - |
| 1777827141 | 16.67° C | 25% | 0 hPa | 0 mm | - | - | - |
| 1777826242 | 16.11° C | 19% | 0 hPa | 0 mm | - | - | - |
| 1777825942 | 16.11° C | 19% | 0 hPa | 0 mm | - | - | - |
| 1777825642 | 16.67° C | 20% | 0 hPa | 0 mm | - | - | - |
| 1777825342 | 16.67° C | 20% | 0 hPa | 0 mm | - | - | - |
| 1777825042 | 16.67° C | 19% | 0 hPa | 0 mm | - | - | - |
| 1777824742 | 16.11° C | 20% | 0 hPa | 0 mm | - | - | - |
| 1777824442 | 16.11° C | 19% | 0 hPa | 0 mm | - | - | - |
| 1777824142 | 16.11° C | 21% | 0 hPa | 0 mm | - | - | - |
| 1777823842 | 15.56° C | 21% | 0 hPa | 0 mm | - | - | - |
| 1777823542 | 16.11° C | 22% | 0 hPa | 0 mm | - | - | - |
| 1777823242 | 15.56° C | 19% | 0 hPa | 0 mm | - | - | - |
| 1777822942 | 16.11° C | 22% | 0 hPa | 0 mm | - | - | - |
| 1777822642 | 16.11° C | 22% | 0 hPa | 0 mm | - | - | - |
| 1777822342 | 15.56° C | 21% | 0 hPa | 0 mm | - | - | - |
| 1777822042 | 15° C | 23% | 0 hPa | 0 mm | - | - | - |
| 1777821742 | 14.44° C | 21% | 0 hPa | 0 mm | - | - | - |
| 1777821442 | 15° C | 19% | 0 hPa | 0 mm | - | - | - |
| 1777821142 | 16.11° C | 23% | 0 hPa | 0 mm | - | - | - |
| 1777820542 | 15.56° C | 29% | 0 hPa | 0 mm | - | - | - |
| 1777820242 | 15.56° C | 28% | 0 hPa | 0 mm | - | - | - |
| 1777819942 | 15° C | 30% | 0 hPa | 0 mm | - | - | - |
| 1777819042 | 14.44° C | 33% | 0 hPa | 0 mm | - | - | - |
* Rain latest hour (hover to see other rain measurements)
** Current wind speed in m/s (hover to see current wind gust speed)